Weather History for KAEX - January, 1999

Change the Weather History Date:

Friday, January 29, 1999

  Actual Average Record
Temperature  
Mean Temperature 66 °F 49 °F  
Max Temperature 71 °F 60 °F 84 °F (1957)
Min Temperature 60 °F 38 °F 12 °F (1905)
Degree Days  
Heating Degree Days 0 16  
Month to date heating degree days 464  
Since 1 July heating degree days 1253  
Growing Degree Days 16 (Base 50)    
Moisture  
Dew Point 64 °F    
Average Humidity 97    
Maximum Humidity 100    
Minimum Humidity 94    
Precipitation  
Precipitation 0.00 in 0.20 in 2.62 in (1939)
Month to date precipitation 4.79  
Year to date precipitation 4.79  
Snow  
Snow 0.00 in - T in (1951)
Month to date snowfall  
Since 1 July snowfall  
Snow Depth -    
Sea Level Pressure  
Sea Level Pressure 29.88 in    
Wind  
Wind Speed 17 mph (ESE)    
Max Wind Speed 129 mph    
Max Gust Speed -    
Visibility 5 miles    
Events Rain , Thunderstorm    
T = Trace of Precipitation, MM = Missing Value Source: NWS Daily Summary

Daily Weather History Graph

Daily Weather History Graph

Search for Another Location

Airport or City:

Trip Planner

Search our weather history database for the weather conditions in past years. The results will help you decide how hot, cold, wet, or windy it might be!

Date:

Astronomy

Jan. 29, 1999 Rise Set
Actual Time 7:04 AM CST 5:42 PM CST
Civil Twilight 6:39 AM CST 6:07 PM CST
Nautical Twilight 6:09 AM CST 6:37 PM CST
Astronomical Twilight 5:41 AM CST 7:05 PM CST
Moon 3:59 PM CST (1/29) 5:12 AM CST (1/29)
Length of Visible Light 11h 28m
Length of Day
10h 37m
Waxing Gibbous, 95% of the Moon is Illuminated
Jan 29
Waxing Gibbous
Jan 31
Full
Feb 8
Last Quarter
Feb 16
New
Feb 22
First Quarter

Hourly Weather History & Observations

Time (CST) Temp. Dew Point Humidity Pressure Visibility Wind Dir Wind Speed Gust Speed Precip Events Conditions
1:50 AM 66.2 °F 64.4 °F 94% 29.91 in 5.0 mi SE 16.1 mph - N/A   Overcast
2:50 AM 68.0 °F 66.2 °F 94% 29.91 in 5.0 mi SE 16.1 mph - N/A   Overcast
3:55 AM 66.2 °F 64.4 °F 94% 29.90 in 5.0 mi SE 16.1 mph - N/A   Overcast
4:50 AM 66.2 °F 66.2 °F 100% 29.90 in 5.0 mi SE 13.8 mph - N/A   Overcast
5:50 AM 66.2 °F 66.2 °F 100% 29.89 in 5.0 mi ESE 13.8 mph - N/A Rain Light Rain
6:50 AM 66.2 °F 66.2 °F 100% 29.90 in 5.0 mi SE 13.8 mph - N/A Rain Light Rain
7:50 AM 68.0 °F 66.2 °F 94% 29.91 in 6.0 mi SE 11.5 mph - N/A Rain Light Rain
8:50 AM 68.0 °F 66.2 °F 94% 29.91 in 3.0 mi SE 13.8 mph - N/A Rain , Thunderstorm Thunderstorms and Rain
9:50 AM 69.8 °F 68.0 °F 94% 29.93 in 4.0 mi SSE 11.5 mph - N/A Rain Rain
10:50 AM 69.8 °F 68.0 °F 94% 29.94 in 4.0 mi SE 11.5 mph - N/A Rain Light Rain
11:15 AM 69.8 °F 68.0 °F 94% 29.94 in 2.0 mi South 11.5 mph - N/A Rain Rain
11:25 AM 69.8 °F 69.8 °F 100% 29.93 in 5.0 mi South 11.5 mph - N/A   Overcast
11:50 AM 71.6 °F 69.8 °F 94% 29.93 in 6.0 mi SSE 13.8 mph - N/A   Overcast
12:50 PM 64.4 °F 62.6 °F 94% 29.91 in 1.0 mi North 13.8 mph - N/A Rain , Thunderstorm Thunderstorms and Rain
1:50 PM 62.6 °F 62.6 °F 100% 29.90 in 2.0 mi SE 128.9 mph - N/A Rain , Thunderstorm Thunderstorms and Rain
2:05 PM 62.6 °F 62.6 °F 100% 28.98 in 5.5 mi NNE 12.7 mph - N/A Rain , Thunderstorm Thunderstorms and Rain
2:50 PM 62.6 °F 62.6 °F 100% 29.89 in 1.0 mi NNE 12.7 mph - N/A Rain Rain
3:30 PM 62.6 °F 62.6 °F 100% 29.86 in 10.0 mi North 13.8 mph - N/A   Overcast
3:50 PM 62.6 °F 62.6 °F 100% 29.90 in 5.0 mi NNE 13.8 mph - N/A Rain Light Rain
4:15 PM 62.6 °F 60.8 °F 94% 29.90 in 2.0 mi NNE 13.8 mph - N/A Rain Rain
4:53 PM 62.6 °F 60.8 °F 94% 29.91 in 4.0 mi NE 13.8 mph - N/A   Overcast
5:50 PM 60.8 °F 60.8 °F 100% 29.91 in 1.0 mi NE 11.5 mph - N/A Rain , Thunderstorm Thunderstorms and Rain
6:50 PM 60.8 °F 60.8 °F 100% 29.94 in 5.0 mi NE 13.8 mph - N/A Rain , Thunderstorm Thunderstorms and Rain
7:50 PM 62.6 °F 60.8 °F 94% 29.92 in 4.0 mi ENE 13.8 mph - N/A Rain Rain
8:50 PM 62.6 °F 60.8 °F 94% 29.92 in 7.0 mi East 13.8 mph - N/A Rain Light Rain
9:50 PM 62.6 °F 62.6 °F 100% 29.94 in 7.0 mi East 13.8 mph - N/A Rain Light Rain
10:50 PM 64.4 °F 62.6 °F 94% 29.94 in 7.0 mi ESE 13.8 mph - N/A Rain Light Rain
11:50 PM 64.4 °F 62.6 °F 94% 29.94 in 7.0 mi SE 16.1 mph - N/A   Overcast